User: anonymous   Login
Location: Unspecified
(0.0000°N, 0.0000°E)
Time: 10:44:32
(UTC+00:00)
Language:

CANX 3B (BRITE-ASRA) - Orbit

View from above orbital plane
View from above orbital plane
View from above satellite
View from above satellite

Ground track
Ground track

The orbit data is extracted from the following two-line orbital elements,

1 39091U 13009F   16205.55700335  .00000002  00000-0  16290-4 0  9991
2 39091  98.5770  47.0545 0010090 196.3136 163.7725 14.34984278178360
Epoch (UTC): 23 July 2016 13:22:05
Eccentricity: 0.0010090
inclination: 98.5770°
perigee height: 768 km
apogee height: 782 km
right ascension of ascending node: 47.0545°
argument of perigee: 196.3136°
revolutions per day: 14.34984278
mean anomaly at epoch: 163.7725°
orbit number at epoch: 17836

The dashed part of the orbit path shows where the satellite is in the earth's shadow,  

DLR